DW7670 Weather Reports


time (UTC)temp
C
wind
direction
speed
KPH
gust
KPH
rain 1hr
cm
rain 24hr
cm
rain mn
cm
humidity
%
barometer
mb
20260902063027 13 77 0.0 3.2 0.00 0.00 0.00 88 1022.8
20260902061508 13 77 1.6 6.4 0.00 0.00 0.00 89 1022.7
20260902060038 13 77 1.6 6.4 0.00 0.00 0.00 90 1022.6
20260902054531 14 86 3.2 8.0 0.00 0.00 0.00 91 1022.5
20260902053026 14 88 4.8 8.0 0.00 0.00 0.00 92 1022.4
20260902051527 13 96 4.8 12.9 0.00 0.00 0.00 94 1022.4
20260902050021 13 79 4.8 9.7 0.00 0.00 0.00 96 1022.4
20260902044511 13 78 0.0 3.2 0.00 0.00 0.00 95 1022.1
20260902043034 13 78 0.0 3.2 0.00 0.00 0.00 94 1021.9
20260902041536 13 78 0.0 8.0 0.00 0.00 0.00 94 1021.8
20260902040029 13 6 1.6 4.8 0.00 0.00 0.00 95 1021.7
20260902034524 13 81 1.6 4.8 0.00 0.00 0.00 95 1021.8
20260902033019 12 167 1.6 3.2 0.00 0.00 0.00 94 1021.6
20260902031536 13 167 3.2 4.8 0.00 0.00 0.00 93 1021.5
20260902030015 13 167 0.0 0.0 0.00 0.00 0.00 93 1021.4
20260902024532 13 167 0.0 3.2 0.00 0.00 0.00 93 1021.4
20260902023032 13 167 0.0 1.6 0.00 0.00 0.00 92 1021.5
20260902021530 13 167 1.6 3.2 0.00 0.00 0.00 92 1021.3
20260902020024 13 167 0.0 3.2 0.00 0.00 0.00 91 1021.3
20260902014516 13 167 0.0 3.2 0.00 0.00 0.00 91 1021.3
20260902013019 14 167 1.6 3.2 0.00 0.00 0.00 90 1021.3
20260902011520 14 167 0.0 3.2 0.00 0.00 0.00 90 1021.4
20260902010007 15 167 0.0 3.2 0.00 0.00 0.00 89 1021.1
20260902004505 15 167 0.0 3.2 0.00 0.00 0.00 88 1021.2
20260902003028 15 167 0.0 0.0 0.00 0.00 0.00 87 1021.1
20260902001529 16 167 0.0 0.0 0.00 0.00 0.00 86 1021.0
20260902000024 16 167 0.0 4.8 0.00 0.00 0.00 85 1021.0
20260901234517 16 200 1.6 4.8 0.00 0.00 0.00 84 1020.9
20260901233014 17 200 0.0 3.2 0.00 0.00 0.00 82 1020.9
20260901231518 17 200 1.6 4.8 0.00 0.00 0.00 80 1020.8
20260901230008 18 200 1.6 4.8 0.00 0.00 0.00 78 1020.6
20260901224530 18 201 1.6 6.4 0.00 0.00 0.00 78 1020.5
20260901223028 19 102 1.6 6.4 0.00 0.00 0.00 78 1020.5
20260901221526 19 186 1.6 9.7 0.00 0.00 0.00 77 1020.5
20260901220021 19 115 3.2 11.3 0.00 0.00 0.00 75 1020.5
20260901214516 20 103 6.4 9.7 0.00 0.00 0.00 72 1020.2
20260901213024 20 106 1.6 11.3 0.00 0.00 0.00 72 1020.0
20260901211533 20 139 4.8 12.9 0.00 0.00 0.00 70 1019.8
20260901210030 21 113 4.8 9.7 0.00 0.00 0.00 70 1019.8
20260901204528 21 168 6.4 12.9 0.00 0.00 0.00 72 1019.7
20260901203028 21 92 4.8 16.1 0.00 0.00 0.00 68 1019.6
20260901201522 21 120 8.0 16.1 0.00 0.00 0.00 65 1019.7
20260901200018 22 113 3.2 12.9 0.00 0.00 0.00 66 1019.9
20260901194515 22 165 4.8 9.7 0.00 0.00 0.00 67 1019.8
20260901193034 21 158 3.2 12.9 0.00 0.00 0.00 68 1019.9
20260901191538 20 146 8.0 14.5 0.00 0.00 0.00 70 1019.7
20260901190032 20 109 8.0 14.5 0.00 0.00 0.00 73 1019.9
20260901184526 20 89 9.7 17.7 0.00 0.00 0.00 69 1019.9
20260901183044 20 77 6.4 20.9 0.00 0.00 0.00 68 1019.8
20260901181522 20 84 8.0 16.1 0.00 0.00 0.00 69 1019.8
20260901180021 19 89 12.9 22.5 0.00 0.00 0.00 69 1019.8
20260901174533 19 84 6.4 16.1 0.00 0.00 0.00 72 1019.7
20260901173031 18 113 9.7 16.1 0.00 0.00 0.00 72 1019.9
20260901171547 20 100 4.8 11.3 0.00 0.00 0.00 69 1019.8
20260901170043 20 148 3.2 11.3 0.00 0.00 0.00 69 1019.7
20260901164504 20 110 3.2 12.9 0.00 0.00 0.00 72 1019.7
20260901163007 20 105 6.4 11.3 0.00 0.00 0.00 71 1019.6
20260901161509 21 1 3.2 8.0 0.00 0.00 0.00 69 1019.8
20260901160012 21 72 4.8 11.3 0.00 0.00 0.00 69 1019.8
20260901154512 20 22 3.2 9.7 0.00 0.00 0.00 70 1019.7
20260901153012 20 63 3.2 9.7 0.00 0.00 0.00 70 1019.7
20260901151505 21 86 3.2 9.7 0.00 0.00 0.00 69 1019.7
20260901150007 21 44 1.6 9.7 0.00 0.00 0.00 69 1019.6
20260901144512 20 55 6.4 12.9 0.00 0.00 0.00 69 1019.7
20260901143014 20 95 4.8 12.9 0.00 0.00 0.00 68 1019.7
20260901141513 20 49 3.2 12.9 0.00 0.00 0.00 69 1019.7
20260901140012 20 60 3.2 11.3 0.00 0.00 0.00 69 1019.6
20260901134511 20 19 4.8 8.0 0.00 0.00 0.00 70 1019.6
20260901133008 19 340 3.2 6.4 0.00 0.00 0.00 72 1019.7
20260901131521 19 280 0.0 0.0 0.00 0.00 0.00 73 1019.8
20260901130017 19 280 0.0 0.0 0.00 0.00 0.00 75 1019.8
20260901124516 18 280 0.0 0.0 0.00 0.00 0.00 79 1019.7
20260901123028 18 280 0.0 0.0 0.00 0.00 0.00 79 1019.6
20260901120013 17 124 0.0 3.2 0.00 0.00 0.00 85 1019.5
20260901114507 16 124 1.6 3.2 0.00 0.00 0.00 88 1019.3
20260901113016 15 124 0.0 3.2 0.00 0.00 0.00 90 1019.2
20260901111516 13 124 0.0 3.2 0.00 0.00 0.00 92 1019.2
20260901110017 13 124 1.6 3.2 0.00 0.00 0.00 93 1019.1
20260901104522 13 124 1.6 4.8 0.00 0.00 0.00 92 1018.9
20260901103015 12 103 0.0 3.2 0.00 0.00 0.00 92 1018.7
20260901101522 -17 0.0 0.0 0.00 0.00 0.00 1018.7
20260901100020 -17 0.0 0.0 0.00 0.00 0.00 1018.7
20260901094521 -17 0.0 0.0 0.00 0.00 0.00 1018.8
20260901093024 -17 0.0 0.0 0.00 0.00 0.00 1018.9
20260901091525 -17 0.0 0.0 0.00 0.00 0.00 1018.8
20260901090026 -17 0.0 0.0 0.00 0.00 0.00 1018.9
20260901084530 -17 0.0 0.0 0.00 0.00 0.00 1018.8
20260901083026 -17 0.0 0.0 0.00 0.00 0.00 1018.8
20260901081525 -17 0.0 0.0 0.00 0.00 0.00 1019.0
20260901080027 13 0.0 0.0 0.00 0.00 0.00 1018.9
20260901074524 13 193 4.8 6.4 0.00 0.00 0.00 94 1019.0
20260901073016 13 170 1.6 4.8 0.00 0.00 0.00 93 1018.9
20260901071529 13 186 3.2 4.8 0.00 0.00 0.00 93 1019.1
20260901070028 13 186 3.2 4.8 0.00 0.00 0.00 93 1019.1
20260901064527 13 186 1.6 3.2 0.00 0.00 0.00 92 1019.1